STARS-ME (43640 NORAD) Tracking and Keplerian Element Data

This shows tracking and keplerian element data for the satellite.

Feedback or suggestion? Click here.




ElementValue
Catalog43640
NameSTARS-ME
Epoch Orbit590
Epoch Day317.57447742
Epoch Year2018
RAAN354.0202
Inclination51.6403
Eccentricity0.0006252
Argument of Perigee10.233
Mean Anonmoly349.8787
Mean Motion15.55071853
Decay Rate7.155E-05
L11 43640U 98067PQ 18317.57447742 .00007155 00000-0 11137-3 0 9991
L22 43640 51.6403 354.0202 0006252 10.2330 349.8787 15.55071853 5908

Live tracking and technical data element details for STARS-ME (NORAD 43640). STARS-ME can be tracked NOW for your location showing map with azimuth and elevation plus other details from your city location.

Track the satellite on the map from your city or location and see movement details for azimuth, elevation, latitude, longitude, range, height, and movement on the map or in text.







IsCatalogInMostPopularTable: catalog: 43640, numindb: 25
Update: records affected: 1



GetName: 43640 STARS-ME

Hit Count: updated at: Thu, 15 Nov 2018 04:22:43 GMT